| time (UTC) | temp F | wind direction | speed MPH | gust MPH | rain 1hr in | rain 24hr in | rain mn in | humidity % | barometer mb |
| 20260902085542 | 86 | 5 | 10.0 | 17.0 | 0.00 | 0.00 | 0.00 | 33 | 1017.2 |
| 20260902085041 | 86 | 29 | 8.0 | 17.0 | 0.00 | 0.00 | 0.00 | 33 | 1017.3 |
| 20260902084542 | 86 | 62 | 8.0 | 18.0 | 0.00 | 0.00 | 0.00 | 34 | 1017.2 |
| 20260902084038 | 86 | 62 | 8.0 | 16.0 | 0.00 | 0.00 | 0.00 | 33 | 1017.3 |
| 20260902083536 | 86 | 33 | 10.0 | 16.0 | 0.00 | 0.00 | 0.00 | 33 | 1017.2 |
| 20260902083037 | 86 | 18 | 8.0 | 18.0 | 0.00 | 0.00 | 0.00 | 34 | 1017.3 |
| 20260902082534 | 86 | 33 | 8.0 | 18.0 | 0.00 | 0.00 | 0.00 | 33 | 1017.3 |
| 20260902082033 | 86 | 82 | 9.0 | 19.0 | 0.00 | 0.00 | 0.00 | 33 | 1017.3 |
| 20260902081531 | 85 | 76 | 8.0 | 19.0 | 0.00 | 0.00 | 0.00 | 34 | 1017.2 |
| 20260902081030 | 85 | 51 | 10.0 | 21.0 | 0.00 | 0.00 | 0.00 | 35 | 1017.2 |
| 20260902080529 | 85 | 50 | 10.0 | 21.0 | 0.00 | 0.00 | 0.00 | 34 | 1017.2 |
| 20260902080029 | 85 | 346 | 10.0 | 18.0 | 0.00 | 0.00 | 0.00 | 34 | 1017.2 |
| 20260902075528 | 85 | 36 | 9.0 | 18.0 | 0.00 | 0.00 | 0.00 | 34 | 1017.0 |
| 20260902075028 | 85 | 65 | 9.0 | 18.0 | 0.00 | 0.00 | 0.00 | 34 | 1017.1 |
| 20260902074529 | 85 | 44 | 8.0 | 16.0 | 0.00 | 0.00 | 0.00 | 35 | 1017.0 |
| 20260902074028 | 85 | 128 | 7.0 | 16.0 | 0.00 | 0.00 | 0.00 | 35 | 1017.0 |
| 20260902073525 | 85 | 40 | 6.0 | 15.0 | 0.00 | 0.00 | 0.00 | 36 | 1016.9 |
| 20260902073024 | 85 | 355 | 6.0 | 15.0 | 0.00 | 0.00 | 0.00 | 40 | 1016.9 |
| 20260902072524 | 84 | 346 | 7.0 | 14.0 | 0.00 | 0.00 | 0.00 | 40 | 1016.9 |
| 20260902072022 | 84 | 40 | 6.0 | 15.0 | 0.00 | 0.00 | 0.00 | 41 | 1016.8 |
| 20260902071521 | 84 | 53 | 8.0 | 15.0 | 0.00 | 0.00 | 0.00 | 40 | 1016.8 |
| 20260902071020 | 83 | 22 | 7.0 | 13.0 | 0.00 | 0.00 | 0.00 | 43 | 1016.8 |
| 20260902070518 | 83 | 5 | 7.0 | 12.0 | 0.00 | 0.00 | 0.00 | 44 | 1016.7 |
| 20260902070017 | 82 | 340 | 5.0 | 13.0 | 0.00 | 0.00 | 0.00 | 45 | 1016.7 |
| 20260902065515 | 82 | 44 | 5.0 | 13.0 | 0.00 | 0.00 | 0.00 | 45 | 1016.7 |
| 20260902065014 | 82 | 22 | 6.0 | 13.0 | 0.00 | 0.00 | 0.00 | 46 | 1016.6 |
| 20260902064522 | 82 | 52 | 6.0 | 14.0 | 0.00 | 0.00 | 0.00 | 46 | 1016.5 |
| 20260902064014 | 82 | 340 | 6.0 | 14.0 | 0.00 | 0.00 | 0.00 | 47 | 1016.5 |
| 20260902063512 | 81 | 66 | 5.0 | 11.0 | 0.00 | 0.00 | 0.00 | 47 | 1016.5 |
| 20260902063009 | 81 | 35 | 5.0 | 12.0 | 0.00 | 0.00 | 0.00 | 47 | 1016.5 |
| 20260902062508 | 81 | 345 | 6.0 | 15.0 | 0.00 | 0.00 | 0.00 | 46 | 1016.6 |
| 20260902062007 | 81 | 345 | 7.0 | 15.0 | 0.00 | 0.00 | 0.00 | 46 | 1016.6 |
| 20260902061505 | 81 | 50 | 7.0 | 14.0 | 0.00 | 0.00 | 0.00 | 47 | 1016.6 |
| 20260902061003 | 80 | 42 | 5.0 | 12.0 | 0.00 | 0.00 | 0.00 | 48 | 1016.6 |
| 20260902060502 | 80 | 338 | 4.0 | 15.0 | 0.00 | 0.00 | 0.00 | 49 | 1016.6 |
| 20260902060122 | 80 | 32 | 6.0 | 15.0 | 0.00 | 0.00 | 0.00 | 49 | 1016.6 |
| 20260902055559 | 80 | 53 | 5.0 | 14.0 | 0.00 | 0.00 | 0.00 | 49 | 1016.6 |
| 20260902055058 | 79 | 39 | 6.0 | 13.0 | 0.00 | 0.00 | 0.00 | 50 | 1016.5 |
| 20260902054607 | 79 | 346 | 4.0 | 12.0 | 0.00 | 0.00 | 0.00 | 52 | 1016.6 |
| 20260902054054 | 79 | 23 | 6.0 | 13.0 | 0.00 | 0.00 | 0.00 | 51 | 1016.6 |
| 20260902053553 | 79 | 41 | 5.0 | 13.0 | 0.00 | 0.00 | 0.00 | 52 | 1016.6 |
| 20260902053051 | 78 | 5 | 5.0 | 11.0 | 0.00 | 0.00 | 0.00 | 53 | 1016.6 |
| 20260902052551 | 78 | 40 | 4.0 | 12.0 | 0.00 | 0.00 | 0.00 | 54 | 1016.5 |
| 20260902052048 | 78 | 45 | 4.0 | 12.0 | 0.00 | 0.00 | 0.00 | 54 | 1016.5 |
| 20260902051552 | 78 | 360 | 5.0 | 12.0 | 0.00 | 0.00 | 0.00 | 55 | 1016.5 |
| 20260902051046 | 77 | 15 | 4.0 | 9.0 | 0.00 | 0.00 | 0.00 | 56 | 1016.5 |
| 20260902050545 | 77 | 45 | 4.0 | 8.0 | 0.00 | 0.00 | 0.00 | 56 | 1016.5 |
| 20260902050043 | 77 | 22 | 2.0 | 7.0 | 0.00 | 0.00 | 0.00 | 57 | 1016.4 |
| 20260902045541 | 76 | 17 | 2.0 | 8.0 | 0.00 | 0.00 | 0.00 | 58 | 1016.4 |
| 20260902045039 | 76 | 355 | 3.0 | 6.0 | 0.00 | 0.00 | 0.00 | 59 | 1016.4 |
| 20260902044539 | 75 | 351 | 2.0 | 8.0 | 0.00 | 0.00 | 0.00 | 60 | 1016.4 |
| 20260902044037 | 75 | 19 | 2.0 | 8.0 | 0.00 | 0.00 | 0.00 | 61 | 1016.4 |
| 20260902043536 | 75 | 9 | 2.0 | 8.0 | 0.00 | 0.00 | 0.00 | 61 | 1016.4 |
| 20260902043044 | 74 | 360 | 2.0 | 8.0 | 0.00 | 0.00 | 0.00 | 62 | 1016.3 |
| 20260902042533 | 74 | 350 | 1.0 | 5.0 | 0.00 | 0.00 | 0.00 | 63 | 1016.3 |
| 20260902042032 | 74 | 26 | 2.0 | 5.0 | 0.00 | 0.00 | 0.00 | 63 | 1016.3 |
| 20260902041549 | 74 | 19 | 2.0 | 8.0 | 0.00 | 0.00 | 0.00 | 64 | 1016.3 |
| 20260902041030 | 73 | 350 | 3.0 | 8.0 | 0.00 | 0.00 | 0.00 | 65 | 1016.2 |
| 20260902040530 | 73 | 18 | 1.0 | 5.0 | 0.00 | 0.00 | 0.00 | 65 | 1016.2 |
| 20260902040029 | 73 | 9 | 2.0 | 6.0 | 0.00 | 0.00 | 0.00 | 66 | 1016.2 |
| 20260902035528 | 73 | 44 | 1.0 | 6.0 | 0.00 | 0.00 | 0.00 | 67 | 1016.2 |
| 20260902035026 | 73 | 22 | 2.0 | 5.0 | 0.00 | 0.00 | 0.00 | 67 | 1016.1 |
| 20260902034525 | 73 | 17 | 2.0 | 5.0 | 0.00 | 0.00 | 0.00 | 66 | 1016.2 |
| 20260902034024 | 74 | 348 | 2.0 | 5.0 | 0.00 | 0.00 | 0.00 | 64 | 1016.1 |
| 20260902033524 | 74 | 30 | 2.0 | 5.0 | 0.00 | 0.00 | 0.00 | 64 | 1016.1 |
| 20260902033025 | 74 | 34 | 2.0 | 5.0 | 0.00 | 0.00 | 0.00 | 64 | 1016.1 |
| 20260902032526 | 74 | 351 | 1.0 | 5.0 | 0.00 | 0.00 | 0.00 | 63 | 1016.1 |
| 20260902032022 | 74 | 17 | 3.0 | 5.0 | 0.00 | 0.00 | 0.00 | 61 | 1016.0 |
| 20260902031522 | 75 | 29 | 2.0 | 9.0 | 0.00 | 0.00 | 0.00 | 60 | 1016.1 |
| 20260902031022 | 75 | 360 | 4.0 | 9.0 | 0.00 | 0.00 | 0.00 | 60 | 1016.1 |
| 20260902030521 | 75 | 21 | 2.0 | 8.0 | 0.00 | 0.00 | 0.00 | 60 | 1016.0 |
| 20260902030022 | 75 | 56 | 2.0 | 8.0 | 0.00 | 0.00 | 0.00 | 59 | 1015.9 |
| 20260902025521 | 75 | 30 | 2.0 | 5.0 | 0.00 | 0.00 | 0.00 | 58 | 1016.0 |
| 20260902025023 | 75 | 26 | 2.0 | 6.0 | 0.00 | 0.00 | 0.00 | 57 | 1016.0 |
| 20260902024520 | 75 | 40 | 2.0 | 8.0 | 0.00 | 0.00 | 0.00 | 57 | 1015.9 |
| 20260902024020 | 75 | 35 | 3.0 | 8.0 | 0.00 | 0.00 | 0.00 | 57 | 1016.0 |
| 20260902023520 | 75 | 22 | 3.0 | 8.0 | 0.00 | 0.00 | 0.00 | 57 | 1015.9 |
| 20260902023020 | 75 | 47 | 3.0 | 8.0 | 0.00 | 0.00 | 0.00 | 56 | 1015.9 |
| 20260902022520 | 75 | 62 | 2.0 | 7.0 | 0.00 | 0.00 | 0.00 | 56 | 1015.9 |
| 20260902022019 | 75 | 64 | 3.0 | 6.0 | 0.00 | 0.00 | 0.00 | 56 | 1016.0 |
| 20260902021524 | 75 | 26 | 2.0 | 6.0 | 0.00 | 0.00 | 0.00 | 55 | 1015.9 |
| 20260902021019 | 75 | 50 | 2.0 | 5.0 | 0.00 | 0.00 | 0.00 | 55 | 1016.0 |
| 20260902020519 | 76 | 360 | 2.0 | 8.0 | 0.00 | 0.00 | 0.00 | 54 | 1015.8 |
| 20260902020019 | 76 | 17 | 3.0 | 11.0 | 0.00 | 0.00 | 0.00 | 53 | 1015.8 |
| 20260902015518 | 76 | 21 | 4.0 | 11.0 | 0.00 | 0.00 | 0.00 | 54 | 1015.9 |
| 20260902015018 | 76 | 18 | 5.0 | 11.0 | 0.00 | 0.00 | 0.00 | 54 | 1015.9 |
| 20260902014523 | 76 | 20 | 4.0 | 12.0 | 0.00 | 0.00 | 0.00 | 52 | 1015.9 |
| 20260902014018 | 76 | 35 | 3.0 | 12.0 | 0.00 | 0.00 | 0.00 | 53 | 1016.0 |
| 20260902013517 | 76 | 348 | 3.0 | 8.0 | 0.00 | 0.00 | 0.00 | 53 | 1016.0 |
| 20260902013019 | 77 | 46 | 3.0 | 11.0 | 0.00 | 0.00 | 0.00 | 51 | 1016.1 |
| 20260902012519 | 77 | 44 | 6.0 | 11.0 | 0.00 | 0.00 | 0.00 | 49 | 1016.0 |
| 20260902012019 | 77 | 49 | 4.0 | 9.0 | 0.00 | 0.00 | 0.00 | 50 | 1016.0 |
| 20260902011520 | 77 | 52 | 4.0 | 9.0 | 0.00 | 0.00 | 0.00 | 51 | 1016.0 |
| 20260902011017 | 77 | 49 | 4.0 | 9.0 | 0.00 | 0.00 | 0.00 | 51 | 1016.0 |
| 20260902010516 | 77 | 57 | 3.0 | 9.0 | 0.00 | 0.00 | 0.00 | 50 | 1016.0 |
| 20260902010016 | 77 | 47 | 3.0 | 9.0 | 0.00 | 0.00 | 0.00 | 51 | 1016.0 |
| 20260902005518 | 77 | 39 | 3.0 | 9.0 | 0.00 | 0.00 | 0.00 | 51 | 1015.9 |
| 20260902005015 | 77 | 42 | 3.0 | 10.0 | 0.00 | 0.00 | 0.00 | 51 | 1015.9 |
| 20260902004526 | 77 | 9 | 3.0 | 9.0 | 0.00 | 0.00 | 0.00 | 52 | 1015.8 |
| 20260902004014 | 77 | 44 | 3.0 | 9.0 | 0.00 | 0.00 | 0.00 | 51 | 1015.9 |
| 20260902003514 | 77 | 349 | 4.0 | 9.0 | 0.00 | 0.00 | 0.00 | 51 | 1015.8 |
| 20260902003040 | 77 | 67 | 4.0 | 11.0 | 0.00 | 0.00 | 0.00 | 51 | 1015.8 |
| 20260902002513 | 77 | 48 | 3.0 | 7.0 | 0.00 | 0.00 | 0.00 | 52 | 1015.8 |
| 20260902002014 | 77 | 26 | 3.0 | 9.0 | 0.00 | 0.00 | 0.00 | 52 | 1015.8 |
| 20260902001512 | 77 | 28 | 4.0 | 9.0 | 0.00 | 0.00 | 0.00 | 52 | 1015.8 |
| 20260902001013 | 77 | 40 | 4.0 | 9.0 | 0.00 | 0.00 | 0.00 | 52 | 1015.8 |
| 20260902000512 | 77 | 46 | 4.0 | 9.0 | 0.00 | 0.00 | 0.00 | 53 | 1015.8 |
| 20260902000016 | 77 | 57 | 3.0 | 6.0 | 0.00 | 0.00 | 0.00 | 53 | 1015.8 |
| 20260901235511 | 76 | 30 | 2.0 | 5.0 | 0.00 | 0.00 | 0.00 | 54 | 1015.9 |
| 20260901235010 | 76 | 47 | 2.0 | 5.0 | 0.00 | 0.00 | 0.00 | 54 | 1015.8 |
| 20260901234508 | 76 | 18 | 2.0 | 5.0 | 0.00 | 0.00 | 0.00 | 55 | 1015.8 |
| 20260901234008 | 75 | 9 | 3.0 | 5.0 | 0.00 | 0.00 | 0.00 | 56 | 1015.8 |
| 20260901233508 | 75 | 15 | 1.0 | 5.0 | 0.00 | 0.00 | 0.00 | 57 | 1015.8 |
| 20260901233007 | 75 | 27 | 1.0 | 5.0 | 0.00 | 0.00 | 0.00 | 57 | 1015.8 |
| 20260901232511 | 75 | 360 | 3.0 | 5.0 | 0.00 | 0.00 | 0.00 | 58 | 1015.8 |
| 20260901232007 | 75 | 360 | 2.0 | 5.0 | 0.00 | 0.00 | 0.00 | 57 | 1015.8 |
| 20260901231507 | 75 | 346 | 2.0 | 5.0 | 0.00 | 0.00 | 0.00 | 58 | 1015.8 |
| 20260901231005 | 75 | 355 | 2.0 | 10.0 | 0.00 | 0.00 | 0.00 | 58 | 1016.0 |
| 20260901230506 | 75 | 348 | 2.0 | 10.0 | 0.00 | 0.00 | 0.00 | 58 | 1016.0 |
| 20260901230008 | 75 | 355 | 3.0 | 5.0 | 0.00 | 0.00 | 0.00 | 58 | 1015.9 |
| 20260901225505 | 74 | 341 | 2.0 | 5.0 | 0.00 | 0.00 | 0.00 | 59 | 1016.0 |
| 20260901225004 | 74 | 355 | 2.0 | 5.0 | 0.00 | 0.00 | 0.00 | 58 | 1016.0 |
| 20260901224508 | 74 | 355 | 4.0 | 5.0 | 0.00 | 0.00 | 0.00 | 58 | 1015.9 |
| 20260901224004 | 74 | 346 | 3.0 | 5.0 | 0.00 | 0.00 | 0.00 | 58 | 1016.0 |
| 20260901223504 | 75 | 350 | 1.0 | 6.0 | 0.00 | 0.00 | 0.00 | 59 | 1016.0 |
| 20260901223004 | 74 | 347 | 3.0 | 6.0 | 0.00 | 0.00 | 0.00 | 59 | 1016.0 |
| 20260901222503 | 75 | 350 | 3.0 | 6.0 | 0.00 | 0.00 | 0.00 | 59 | 1016.0 |
| 20260901222001 | 75 | 336 | 4.0 | 6.0 | 0.00 | 0.00 | 0.00 | 58 | 1016.0 |
| 20260901221501 | 75 | 351 | 3.0 | 6.0 | 0.00 | 0.00 | 0.00 | 58 | 1016.1 |
| 20260901221100 | 75 | 325 | 3.0 | 6.0 | 0.00 | 0.00 | 0.00 | 59 | 1016.1 |
| 20260901220600 | 76 | 344 | 4.0 | 6.0 | 0.00 | 0.00 | 0.00 | 59 | 1016.1 |
| 20260901220100 | 76 | 346 | 3.0 | 6.0 | 0.00 | 0.00 | 0.00 | 59 | 1016.1 |
| 20260901215559 | 76 | 338 | 3.0 | 5.0 | 0.00 | 0.00 | 0.00 | 59 | 1016.1 |
| 20260901215059 | 76 | 342 | 3.0 | 5.0 | 0.00 | 0.00 | 0.00 | 59 | 1016.1 |
| 20260901214559 | 76 | 9 | 2.0 | 5.0 | 0.00 | 0.00 | 0.00 | 59 | 1016.1 |
| 20260901214058 | 76 | 15 | 3.0 | 5.0 | 0.00 | 0.00 | 0.00 | 58 | 1016.1 |
| 20260901213602 | 76 | 346 | 3.0 | 5.0 | 0.00 | 0.00 | 0.00 | 58 | 1016.0 |
| 20260901213102 | 76 | 345 | 2.0 | 6.0 | 0.00 | 0.00 | 0.00 | 58 | 1016.1 |
| 20260901212603 | 76 | 351 | 3.0 | 6.0 | 0.00 | 0.00 | 0.00 | 59 | 1016.2 |
| 20260901212058 | 76 | 10 | 2.0 | 6.0 | 0.00 | 0.00 | 0.00 | 59 | 1016.0 |
| 20260901211556 | 76 | 360 | 0.0 | 3.0 | 0.00 | 0.00 | 0.00 | 59 | 1016.1 |
| 20260901211055 | 76 | 360 | 0.0 | 1.0 | 0.00 | 0.00 | 0.00 | 59 | 1016.1 |
| 20260901210558 | 76 | 360 | 0.0 | 2.0 | 0.00 | 0.00 | 0.00 | 58 | 1016.1 |
| 20260901210120 | 76 | 360 | 0.0 | 2.0 | 0.00 | 0.00 | 0.00 | 58 | 1016.1 |
| 20260901205553 | 76 | 360 | 0.0 | 1.0 | 0.00 | 0.00 | 0.00 | 58 | 1016.1 |
| 20260901205052 | 76 | 360 | 0.0 | 2.0 | 0.00 | 0.00 | 0.00 | 58 | 1016.1 |
| 20260901204553 | 76 | 360 | 0.0 | 2.0 | 0.00 | 0.00 | 0.00 | 58 | 1016.1 |
| 20260901204052 | 76 | 360 | 0.0 | 0.0 | 0.00 | 0.00 | 0.00 | 58 | 1016.1 |
| 20260901203552 | 76 | 360 | 0.0 | 0.0 | 0.00 | 0.00 | 0.00 | 57 | 1016.0 |
| 20260901203053 | 76 | 360 | 0.0 | 1.0 | 0.00 | 0.00 | 0.00 | 58 | 1016.1 |
| 20260901202553 | 76 | 360 | 0.0 | 1.0 | 0.00 | 0.00 | 0.00 | 58 | 1016.0 |
| 20260901202054 | 75 | 360 | 0.0 | 0.0 | 0.00 | 0.00 | 0.00 | 58 | 1016.0 |
| 20260901201554 | 75 | 83 | 0.0 | 0.0 | 0.00 | 0.00 | 0.00 | 58 | 1016.0 |
| 20260901201054 | 76 | 83 | 0.0 | 1.0 | 0.00 | 0.00 | 0.00 | 57 | 1016.0 |
| 20260901200554 | 76 | 82 | 0.0 | 2.0 | 0.00 | 0.00 | 0.00 | 57 | 1016.1 |
| 20260901200051 | 76 | 82 | 0.0 | 2.0 | 0.00 | 0.00 | 0.00 | 56 | 1016.1 |
| 20260901195551 | 76 | 83 | 0.0 | 2.0 | 0.00 | 0.00 | 0.00 | 56 | 1016.0 |
| 20260901195051 | 76 | 83 | 0.0 | 1.0 | 0.00 | 0.00 | 0.00 | 57 | 1016.2 |
| 20260901194559 | 76 | 84 | 0.0 | 0.0 | 0.00 | 0.00 | 0.00 | 57 | 1016.1 |
| 20260901194050 | 76 | 84 | 0.0 | 0.0 | 0.00 | 0.00 | 0.00 | 56 | 1016.1 |
| 20260901193555 | 77 | 82 | 0.0 | 1.0 | 0.00 | 0.00 | 0.00 | 55 | 1016.1 |
| 20260901193050 | 77 | 82 | 0.0 | 1.0 | 0.00 | 0.00 | 0.00 | 55 | 1016.1 |
| 20260901192551 | 76 | 82 | 0.0 | 0.0 | 0.00 | 0.00 | 0.00 | 55 | 1016.1 |
| 20260901192051 | 77 | 82 | 0.0 | 0.0 | 0.00 | 0.00 | 0.00 | 55 | 1016.1 |
| 20260901191600 | 77 | 82 | 0.0 | 0.0 | 0.00 | 0.00 | 0.00 | 54 | 1016.1 |
| 20260901191052 | 77 | 82 | 0.0 | 1.0 | 0.00 | 0.00 | 0.00 | 54 | 1016.1 |
| 20260901190550 | 77 | 82 | 0.0 | 2.0 | 0.00 | 0.00 | 0.00 | 54 | 1016.1 |
| 20260901190115 | 77 | 82 | 0.0 | 2.0 | 0.00 | 0.00 | 0.00 | 55 | 1016.1 |
| 20260901185549 | 77 | 82 | 0.0 | 2.0 | 0.00 | 0.00 | 0.00 | 55 | 1016.0 |
| 20260901185049 | 77 | 82 | 0.0 | 1.0 | 0.00 | 0.00 | 0.00 | 55 | 1015.9 |
| 20260901184549 | 77 | 82 | 0.0 | 2.0 | 0.00 | 0.00 | 0.00 | 54 | 1015.9 |
| 20260901184049 | 77 | 82 | 0.0 | 2.0 | 0.00 | 0.00 | 0.00 | 55 | 1015.9 |
| 20260901183548 | 77 | 82 | 0.0 | 0.0 | 0.00 | 0.00 | 0.00 | 55 | 1015.9 |
| 20260901183051 | 77 | 82 | 0.0 | 2.0 | 0.00 | 0.00 | 0.00 | 55 | 1015.8 |
| 20260901182549 | 77 | 82 | 0.0 | 2.0 | 0.00 | 0.00 | 0.00 | 55 | 1015.7 |
| 20260901182049 | 77 | 82 | 1.0 | 2.0 | 0.00 | 0.00 | 0.00 | 54 | 1015.8 |
| 20260901181549 | 77 | 85 | 0.0 | 2.0 | 0.00 | 0.00 | 0.00 | 54 | 1015.7 |
| 20260901181048 | 77 | 86 | 0.0 | 0.0 | 0.00 | 0.00 | 0.00 | 56 | 1015.7 |
| 20260901180548 | 77 | 360 | 0.0 | 0.0 | 0.00 | 0.00 | 0.00 | 56 | 1015.7 |
| 20260901180049 | 77 | 360 | 0.0 | 0.0 | 0.00 | 0.00 | 0.00 | 56 | 1015.6 |
| 20260901175551 | 77 | 360 | 0.0 | 0.0 | 0.00 | 0.00 | 0.00 | 55 | 1015.6 |
| 20260901175047 | 78 | 89 | 0.0 | 1.0 | 0.00 | 0.00 | 0.00 | 55 | 1015.4 |
| 20260901174553 | 77 | 88 | 0.0 | 1.0 | 0.00 | 0.00 | 0.00 | 55 | 1015.3 |
| 20260901174047 | 78 | 360 | 0.0 | 2.0 | 0.00 | 0.00 | 0.00 | 55 | 1015.3 |
| 20260901173548 | 78 | 360 | 0.0 | 2.0 | 0.00 | 0.00 | 0.00 | 54 | 1015.2 |
| 20260901173047 | 78 | 360 | 0.0 | 1.0 | 0.00 | 0.00 | 0.00 | 54 | 1015.2 |
| 20260901172547 | 79 | 360 | 0.0 | 1.0 | 0.00 | 0.00 | 0.00 | 54 | 1015.1 |
| 20260901172049 | 79 | 360 | 0.0 | 3.0 | 0.00 | 0.00 | 0.00 | 53 | 1015.1 |
| 20260901171556 | 79 | 86 | 0.0 | 3.0 | 0.00 | 0.00 | 0.00 | 53 | 1015.1 |
| 20260901171047 | 79 | 85 | 0.0 | 4.0 | 0.00 | 0.00 | 0.00 | 52 | 1015.2 |
| 20260901170547 | 79 | 84 | 1.0 | 4.0 | 0.00 | 0.00 | 0.00 | 52 | 1015.1 |
| 20260901170047 | 80 | 83 | 1.0 | 5.0 | 0.00 | 0.00 | 0.00 | 52 | 1015.1 |
| 20260901165549 | 80 | 78 | 2.0 | 7.0 | 0.00 | 0.00 | 0.00 | 51 | 1015.1 |
| 20260901165049 | 80 | 92 | 3.0 | 7.0 | 0.00 | 0.00 | 0.00 | 51 | 1015.1 |
| 20260901164552 | 80 | 91 | 3.0 | 7.0 | 0.00 | 0.00 | 0.00 | 51 | 1015.0 |
| 20260901164046 | 80 | 82 | 3.0 | 7.0 | 0.00 | 0.00 | 0.00 | 50 | 1015.0 |
| 20260901163546 | 81 | 114 | 2.0 | 6.0 | 0.00 | 0.00 | 0.00 | 50 | 1014.9 |
| 20260901163105 | 81 | 96 | 3.0 | 10.0 | 0.00 | 0.00 | 0.00 | 50 | 1014.9 |
| 20260901162545 | 81 | 76 | 6.0 | 10.0 | 0.00 | 0.00 | 0.00 | 49 | 1014.8 |
| 20260901162046 | 81 | 78 | 3.0 | 8.0 | 0.00 | 0.00 | 0.00 | 49 | 1014.8 |
| 20260901161546 | 82 | 67 | 3.0 | 9.0 | 0.00 | 0.00 | 0.00 | 48 | 1014.8 |
| 20260901161045 | 82 | 90 | 4.0 | 9.0 | 0.00 | 0.00 | 0.00 | 48 | 1014.9 |
| 20260901160546 | 82 | 84 | 3.0 | 9.0 | 0.00 | 0.00 | 0.00 | 47 | 1014.9 |
| 20260901160044 | 82 | 89 | 4.0 | 9.0 | 0.00 | 0.00 | 0.00 | 47 | 1014.9 |
| 20260901155547 | 83 | 103 | 3.0 | 10.0 | 0.00 | 0.00 | 0.00 | 46 | 1014.9 |
| 20260901155045 | 83 | 90 | 6.0 | 10.0 | 0.00 | 0.00 | 0.00 | 45 | 1014.8 |
| 20260901154552 | 84 | 85 | 4.0 | 8.0 | 0.00 | 0.00 | 0.00 | 44 | 1014.8 |
| 20260901154044 | 84 | 25 | 3.0 | 9.0 | 0.00 | 0.00 | 0.00 | 41 | 1014.9 |
| 20260901153543 | 84 | 72 | 4.0 | 9.0 | 0.00 | 0.00 | 0.00 | 41 | 1015.0 |
| 20260901153044 | 84 | 74 | 2.0 | 10.0 | 0.00 | 0.00 | 0.00 | 42 | 1014.9 |
| 20260901152543 | 85 | 78 | 4.0 | 10.0 | 0.00 | 0.00 | 0.00 | 41 | 1014.9 |
| 20260901152044 | 85 | 61 | 4.0 | 9.0 | 0.00 | 0.00 | 0.00 | 40 | 1014.9 |
| 20260901151543 | 85 | 90 | 2.0 | 12.0 | 0.00 | 0.00 | 0.00 | 39 | 1014.9 |
| 20260901151043 | 85 | 343 | 5.0 | 12.0 | 0.00 | 0.00 | 0.00 | 37 | 1014.9 |
| 20260901150542 | 85 | 78 | 4.0 | 9.0 | 0.00 | 0.00 | 0.00 | 38 | 1014.9 |
| 20260901150043 | 85 | 28 | 4.0 | 9.0 | 0.00 | 0.00 | 0.00 | 38 | 1014.9 |
| 20260901145644 | 85 | 55 | 4.0 | 8.0 | 0.00 | 0.00 | 0.00 | 40 | 1014.8 |
| 20260901145041 | 86 | 36 | 4.0 | 9.0 | 0.00 | 0.00 | 0.00 | 39 | 1014.8 |
| 20260901144541 | 86 | 19 | 2.0 | 9.0 | 0.00 | 0.00 | 0.00 | 38 | 1014.8 |
| 20260901144041 | 86 | 57 | 2.0 | 9.0 | 0.00 | 0.00 | 0.00 | 39 | 1014.8 |
| 20260901143541 | 86 | 43 | 4.0 | 12.0 | 0.00 | 0.00 | 0.00 | 37 | 1014.8 |
| 20260901143041 | 86 | 55 | 5.0 | 12.0 | 0.00 | 0.00 | 0.00 | 37 | 1014.9 |
| 20260901142542 | 86 | 42 | 6.0 | 11.0 | 0.00 | 0.00 | 0.00 | 37 | 1014.9 |
| 20260901142042 | 85 | 44 | 2.0 | 11.0 | 0.00 | 0.00 | 0.00 | 37 | 1015.0 |
| 20260901141541 | 86 | 49 | 4.0 | 11.0 | 0.00 | 0.00 | 0.00 | 38 | 1015.1 |
| 20260901141041 | 86 | 82 | 5.0 | 10.0 | 0.00 | 0.00 | 0.00 | 38 | 1015.1 |
| 20260901140541 | 85 | 113 | 5.0 | 13.0 | 0.00 | 0.00 | 0.00 | 38 | 1015.1 |
| 20260901140046 | 86 | 86 | 8.0 | 13.0 | 0.00 | 0.00 | 0.00 | 37 | 1015.1 |
| 20260901135540 | 86 | 44 | 3.0 | 12.0 | 0.00 | 0.00 | 0.00 | 38 | 1015.1 |
| 20260901135040 | 86 | 26 | 7.0 | 12.0 | 0.00 | 0.00 | 0.00 | 38 | 1015.2 |
| 20260901134540 | 86 | 49 | 4.0 | 14.0 | 0.00 | 0.00 | 0.00 | 38 | 1015.1 |
| 20260901134040 | 85 | 71 | 9.0 | 14.0 | 0.00 | 0.00 | 0.00 | 38 | 1015.2 |
| 20260901133539 | 86 | 360 | 6.0 | 16.0 | 0.00 | 0.00 | 0.00 | 38 | 1015.1 |
| 20260901133050 | 86 | 85 | 6.0 | 16.0 | 0.00 | 0.00 | 0.00 | 38 | 1015.1 |
| 20260901132541 | 86 | 40 | 7.0 | 16.0 | 0.00 | 0.00 | 0.00 | 38 | 1015.1 |
| 20260901132039 | 86 | 38 | 8.0 | 17.0 | 0.00 | 0.00 | 0.00 | 38 | 1015.1 |
| 20260901131538 | 86 | 74 | 6.0 | 17.0 | 0.00 | 0.00 | 0.00 | 37 | 1015.1 |
| 20260901131044 | 86 | 72 | 9.0 | 16.0 | 0.00 | 0.00 | 0.00 | 37 | 1015.1 |
| 20260901130540 | 86 | 57 | 7.0 | 15.0 | 0.00 | 0.00 | 0.00 | 38 | 1015.1 |
| 20260901130039 | 86 | 78 | 8.0 | 15.0 | 0.00 | 0.00 | 0.00 | 37 | 1015.1 |
| 20260901125539 | 86 | 71 | 5.0 | 15.0 | 0.00 | 0.00 | 0.00 | 38 | 1015.2 |
| 20260901125038 | 86 | 9 | 9.0 | 16.0 | 0.00 | 0.00 | 0.00 | 37 | 1015.3 |
| 20260901124538 | 86 | 92 | 5.0 | 16.0 | 0.00 | 0.00 | 0.00 | 37 | 1015.3 |
| 20260901124037 | 86 | 117 | 8.0 | 15.0 | 0.00 | 0.00 | 0.00 | 37 | 1015.4 |
| 20260901123537 | 86 | 44 | 6.0 | 16.0 | 0.00 | 0.00 | 0.00 | 37 | 1015.5 |
| 20260901123039 | 86 | 46 | 5.0 | 17.0 | 0.00 | 0.00 | 0.00 | 38 | 1015.5 |
| 20260901122536 | 86 | 79 | 6.0 | 14.0 | 0.00 | 0.00 | 0.00 | 37 | 1015.6 |
| 20260901122036 | 86 | 24 | 6.0 | 16.0 | 0.00 | 0.00 | 0.00 | 37 | 1015.6 |
| 20260901121545 | 86 | 76 | 8.0 | 16.0 | 0.00 | 0.00 | 0.00 | 37 | 1015.7 |
| 20260901121036 | 86 | 76 | 5.0 | 15.0 | 0.00 | 0.00 | 0.00 | 38 | 1015.6 |
| 20260901120635 | 86 | 41 | 8.0 | 15.0 | 0.00 | 0.00 | 0.00 | 37 | 1015.7 |
| 20260901120038 | 86 | 84 | 7.0 | 15.0 | 0.00 | 0.00 | 0.00 | 38 | 1015.6 |
| 20260901115537 | 86 | 53 | 9.0 | 15.0 | 0.00 | 0.00 | 0.00 | 37 | 1015.6 |
| 20260901115037 | 86 | 76 | 8.0 | 13.0 | 0.00 | 0.00 | 0.00 | 37 | 1015.6 |
| 20260901114535 | 86 | 73 | 6.0 | 15.0 | 0.00 | 0.00 | 0.00 | 37 | 1015.6 |
| 20260901114034 | 86 | 40 | 7.0 | 15.0 | 0.00 | 0.00 | 0.00 | 36 | 1015.6 |
| 20260901113534 | 86 | 27 | 7.0 | 14.0 | 0.00 | 0.00 | 0.00 | 37 | 1015.7 |
| 20260901113036 | 87 | 360 | 6.0 | 15.0 | 0.00 | 0.00 | 0.00 | 37 | 1015.7 |
| 20260901112533 | 86 | 55 | 7.0 | 15.0 | 0.00 | 0.00 | 0.00 | 36 | 1015.6 |
| 20260901112033 | 86 | 55 | 6.0 | 16.0 | 0.00 | 0.00 | 0.00 | 37 | 1015.7 |
| 20260901111533 | 86 | 44 | 7.0 | 16.0 | 0.00 | 0.00 | 0.00 | 37 | 1015.7 |
| 20260901111033 | 86 | 56 | 7.0 | 15.0 | 0.00 | 0.00 | 0.00 | 37 | 1015.5 |
| 20260901110532 | 86 | 95 | 7.0 | 14.0 | 0.00 | 0.00 | 0.00 | 36 | 1015.6 |
| 20260901110033 | 86 | 49 | 7.0 | 14.0 | 0.00 | 0.00 | 0.00 | 36 | 1015.7 |
| 20260901105532 | 86 | 38 | 8.0 | 17.0 | 0.00 | 0.00 | 0.00 | 37 | 1015.7 |
| 20260901105033 | 86 | 360 | 9.0 | 17.0 | 0.00 | 0.00 | 0.00 | 36 | 1015.8 |
| 20260901104539 | 86 | 69 | 9.0 | 17.0 | 0.00 | 0.00 | 0.00 | 36 | 1015.8 |
| 20260901104035 | 86 | 76 | 6.0 | 15.0 | 0.00 | 0.00 | 0.00 | 37 | 1015.7 |
| 20260901103531 | 86 | 63 | 8.0 | 16.0 | 0.00 | 0.00 | 0.00 | 37 | 1015.7 |
| 20260901103040 | 86 | 40 | 6.0 | 18.0 | 0.00 | 0.00 | 0.00 | 38 | 1015.8 |
| 20260901102531 | 85 | 32 | 7.0 | 18.0 | 0.00 | 0.00 | 0.00 | 38 | 1015.8 |
| 20260901102031 | 86 | 360 | 10.0 | 17.0 | 0.00 | 0.00 | 0.00 | 36 | 1015.9 |
| 20260901101532 | 86 | 32 | 5.0 | 15.0 | 0.00 | 0.00 | 0.00 | 37 | 1015.9 |
| 20260901101029 | 86 | 89 | 7.0 | 15.0 | 0.00 | 0.00 | 0.00 | 37 | 1015.9 |
| 20260901100530 | 85 | 85 | 7.0 | 20.0 | 0.00 | 0.00 | 0.00 | 37 | 1016.0 |
| 20260901100032 | 85 | 60 | 11.0 | 20.0 | 0.00 | 0.00 | 0.00 | 37 | 1016.0 |
| 20260901095526 | 85 | 41 | 7.0 | 16.0 | 0.00 | 0.00 | 0.00 | 38 | 1016.0 |
| 20260901095026 | 85 | 67 | 6.0 | 15.0 | 0.00 | 0.00 | 0.00 | 37 | 1016.1 |
| 20260901094525 | 85 | 57 | 8.0 | 17.0 | 0.00 | 0.00 | 0.00 | 37 | 1016.1 |
| 20260901094025 | 85 | 49 | 8.0 | 17.0 | 0.00 | 0.00 | 0.00 | 38 | 1016.1 |
| 20260901093524 | 85 | 51 | 6.0 | 16.0 | 0.00 | 0.00 | 0.00 | 39 | 1016.1 |
| 20260901093023 | 85 | 40 | 8.0 | 16.0 | 0.00 | 0.00 | 0.00 | 38 | 1016.1 |
| 20260901092522 | 85 | 51 | 6.0 | 15.0 | 0.00 | 0.00 | 0.00 | 40 | 1016.0 |
| 20260901092021 | 85 | 45 | 8.0 | 15.0 | 0.00 | 0.00 | 0.00 | 40 | 1016.0 |
| 20260901091520 | 85 | 36 | 9.0 | 15.0 | 0.00 | 0.00 | 0.00 | 40 | 1016.1 |
| 20260901091019 | 85 | 80 | 9.0 | 15.0 | 0.00 | 0.00 | 0.00 | 40 | 1015.9 |
| 20260901090518 | 85 | 32 | 5.0 | 12.0 | 0.00 | 0.00 | 0.00 | 42 | 1015.9 |
| 20260901090029 | 85 | 355 | 7.0 | 14.0 | 0.00 | 0.00 | 0.00 | 42 | 1015.8 |